PSLV R/B (44805 NORAD) Tracking and Keplerian Element Data

This shows tracking and keplerian element data for the satellite.

Feedback or suggestion? Click here.




ElementValue
Catalog44805
NamePSLV R/B
Epoch Orbit438
Epoch Day360.18613287
Epoch Year2019
RAAN56.641
Inclination97.51
Eccentricity0.0049324
Argument of Perigee136.7448
Mean Anonmoly223.7671
Mean Motion15.12291839
Decay Rate1.03E-06
L11 44805U 19081B 19360.18613287 .00000103 00000-0 95780-5 0 9993
L22 44805 97.5100 56.6410 0049324 136.7448 223.7671 15.12291839 4386



Live tracking and technical data element details for PSLV R/B (NORAD 44805). PSLV R/B can be tracked NOW for your location showing map with azimuth and elevation plus other details from your city location.







IsCatalogInMostPopularTable: catalog: 44805, numindb: 178
Update: records affected: 1



GetName: 44805 PSLV R/B

Hit Count: updated at: Sun, 28 May 2023 19:22:10 GMT